QBEE50-LTU-OC (42708 NORAD) Tracking and Keplerian Element Data

This shows tracking and keplerian element data for the satellite.

Feedback or suggestion? Click here.




ElementValue
Catalog42708
NameQBEE50-LTU-OC
Epoch Orbit6626
Epoch Day196.11671318
Epoch Year2018
RAAN212.4935
Inclination51.6338
Eccentricity0.000215
Argument of Perigee359.1554
Mean Anonmoly0.9441
Mean Motion15.72336894
Decay Rate0.00023772
L11 42708U 98067LR 18196.11671318 .00023772 00000-0 17946-3 0 9995
L22 42708 51.6338 212.4935 0002150 359.1554 0.9441 15.72336894 66261

Live tracking and technical data element details for QBEE50-LTU-OC (NORAD 42708). QBEE50-LTU-OC can be tracked NOW for your location showing map with azimuth and elevation plus other details from your city location.

Track the satellite on the map from your city or location and see movement details for azimuth, elevation, latitude, longitude, range, height, and movement on the map or in text.







IsCatalogInMostPopularTable: catalog: 42708, numindb: 120
Update: records affected: 1



GetName: 42708 QBEE50-LTU-OC

Hit Count: updated at: Sun, 15 Jul 2018 23:16:45 GMT